Regional Weather Roundup
Issued by NWS

Home | Current Version | Previous Version | Graphics & Text | Print | Product List | Glossary On
Versions: 1 2 3 4 5 6 7 8 9 10 11 12 13 14 15 16 17 18 19 20 21 22 23 24 25 26 27 28 29 30 31 32 33 34 35 36 37 38 39 40 41 42 43 44 45 46 47 48 49 50
000
ASUS45 KCYS 030110
RWRWY

WYOMING REGIONAL WEATHER ROUNDUP
NATIONAL WEATHER SERVICE CHEYENNE WY
700 PM MDT SUN AUG 02 2015

NOTE:  "FAIR" INDICATES FEW OR NO CLOUDS BELOW 12,000 FEET
WITH NO SIGNIFICANT WEATHER AND/OR OBSTRUCTIONS TO VISIBILITY.

WYZ001-030200-
YELLOWSTONE NATIONAL PARK

CITY           SKY/WX    TMP DP  RH WIND       PRES   REMARKS
LK YELLOWSTONE   N/A     75  35  23 CALM      30.25F
W YELLOWSTONE  NOT AVBL

$$
WYZ002>013-054>058-071-098>099-030200-
NORTHERN WYOMING

CITY           SKY/WX    TMP DP  RH WIND       PRES   REMARKS
JACKSON        SUNNY     82  34  17 CALM      30.10F
CODY           FAIR      79  45  29 N12       30.06S
GREYBULL       FAIR      94  34  12 NW14      29.92S
WORLAND        FAIR      94  17   6 NE3       29.94F
SHERIDAN       FAIR      87  42  20 W10       29.99F
BUFFALO        FAIR      83  41  22 NW10      30.08S
GILLETTE       FAIR      85  46  25 NE15      30.01S
HULETT         FAIR      79  46  31 E9        30.03S
NEWCASTLE      FAIR      84  48  28 MISG      29.99S

$$
WYZ014>020-022>026-101>103-030200-
CENTRAL WYOMING

CITY           SKY/WX    TMP DP  RH WIND       PRES   REMARKS
BIG PINEY      FAIR      85  26  11 W7        30.14F
PINEDALE       FAIR      82  27  13 E5        30.15F
DUBOIS         FAIR      81  23  12 SE13G20   30.17S
LANDER         FAIR      87  25  10 NE10      30.03F
RIVERTON       FAIR      88  22   9 E9        30.04F
CASPER         FAIR      91  20   7 N9        30.01F
DOUGLAS        FAIR      87  43  21 SE17      30.01S

$$
WYZ021-027>030-104>119-030200-
SOUTHERN WYOMING

CITY           SKY/WX    TMP DP  RH WIND       PRES   REMARKS
EVANSTON       FAIR      76  39  26 W17G28    30.15F
KEMMERER       FAIR     N/A N/A N/A E9        30.15F
FORT BRIDGER   CLEAR     84  23  10 N7        30.14F
ROCK SPRINGS   FAIR      83  33  16 S15       30.10F
DIXON          FAIR      80  44  28 CALM      30.11S
RAWLINS        FAIR      84  23  10 E8        30.12F
SARATOGA       FAIR      77  36  22 SE10G16   30.15F
LARAMIE        FAIR      76  40  27 SE10      30.17F
CHEYENNE       FAIR      82  47  29 SE9       30.10F
TORRINGTON     FAIR      86  50  28 SE9       29.96S
PINE BLUFFS    FAIR      79  45  29 E9        30.05S

$$



USA.gov is the U.S. government's official web portal to all federal, state and local government web resources and services.